Location: Unspecified
(35.7250°N, 0.0000°E)
Time: 07:00:38
(UTC+00:00)

Vanguard 2 - Pass Details

Date: 23 June 2019
Orbit: 554 x 2937 km, 32.9° (Epoch: 13 October)

Event Time Altitude Azimuth Distance (km) Brightness Sun altitude
Rises 08:06:55 0° 246° (WSW) 2,958 10.1 38.2°
Reaches altitude 10° 08:08:55 10° 242° (WSW) 2,190 9.5 38.6°
Maximum altitude 08:13:50 57° 164° (SSE) 1,084 9.0 39.6°
Drops below altitude 10° 08:21:39 10° 88° (E) 3,438 12.0 41.2°
Sets 08:25:33 0° 85° (E) 4,825 12.4 41.9°
